Terminal Aerodrome Forecast
Issued by NWS Twin Cities, MN

Home | Current Version | Previous Version | Graphics & Text | Print | Product List | Glossary On
Versions: 1 2 3 4 5 6 7 8 9 10 11 12 13 14 15 16 17 18 19 20 21 22 23 24 25
000
FTUS43 KMPX 161527 AAA
TAFMSP
TAF AMD
KMSP 161527Z 1615/1718 16006KT P6SM SCT080 BKN120
     FM162100 23008KT P6SM SCT060
     FM170300 28008KT P6SM BKN060
     FM170600 32004KT P6SM BKN060 OVC100=

USA.gov is the U.S. government's official web portal to all federal, state and local government web resources and services.